THAICOM 6 (39500 NORAD) Tracking and Keplerian Element Data

This shows tracking and keplerian element data for the satellite.

Feedback or suggestion? Click here.




ElementValue
Catalog39500
NameTHAICOM 6
Epoch Orbit4366
Epoch Day354.06748745
Epoch Year2025
RAAN109.8645
Inclination0.0729
Eccentricity9.47E-05
Argument of Perigee173.7298
Mean Anonmoly268.1661
Mean Motion1.00273416
Decay Rate-9.8E-07
L11 39500U 14002A 25354.06748745 -.00000098 00000+0 00000+0 0 9990
L22 39500 0.0729 109.8645 0000947 173.7298 268.1661 1.00273416 43660



Live tracking and technical data element details for THAICOM 6 (NORAD 39500). THAICOM 6 can be tracked NOW for your location showing map with azimuth and elevation plus other details from your city location.







IsCatalogInMostPopularTable: catalog: 39500, numindb: 427
Update: records affected: 1



GetName: 39500 THAICOM 6

Hit Count: updated at: Mon, 18 May 2026 10:29:27 GMT